STARLINK-1237 (45192 NORAD) Tracking and Keplerian Element Data

This shows tracking and keplerian element data for the satellite.

Feedback or suggestion? Click here.




ElementValue
Catalog45192
NameSTARLINK-1237
Epoch Orbit175
Epoch Day189.91668981
Epoch Year2020
RAAN342.6799
Inclination52.9997
Eccentricity0.0001327
Argument of Perigee114.2595
Mean Anonmoly218.1917
Mean Motion15.05575393
Decay Rate0.00028028
L11 45192U 20012Q 20189.91668981 .00028028 00000-0 19354-2 0 9998
L22 45192 52.9997 342.6799 0001327 114.2595 218.1917 15.05575393 1759

Live tracking and technical data element details for STARLINK-1237 (NORAD 45192). STARLINK-1237 can be tracked NOW for your location showing map with azimuth and elevation plus other details from your city location.

Track the satellite on the map from your city or location and see movement details for azimuth, elevation, latitude, longitude, range, height, and movement on the map or in text.







IsCatalogInMostPopularTable: catalog: 45192, numindb: 26
Update: records affected: 1



GetName: 45192 STARLINK-1237

Hit Count: updated at: Fri, 10 Jul 2020 02:02:55 GMT